EA5AFP-10 Weather Reports


Display with metric or nautical units.
time (UTC)temp
F
wind
direction
speed
MPH
gust
MPH
rain 1hr
in
rain 24hr
in
rain mn
in
humidity
%
barometer
mb
20220118073931 36 0 0.0 0.0 0.00 0.00 0.00 8 1025.9
20220118073036 36 0 0.0 0.0 0.00 0.00 0.00 8 1025.8
20220118072141 35 0 0.0 0.0 0.00 0.00 0.00 8 1025.7
20220118071247 36 0 0.0 0.0 0.00 0.00 0.00 8 1025.8
20220118070246 36 0 0.0 0.0 0.00 0.00 0.00 8 1025.7
20220118065422 36 0 0.0 0.0 0.00 0.00 0.00 8 1025.6
20220118064611 36 0 0.0 1.0 0.00 0.00 0.00 8 1025.7
20220118063726 36 0 0.0 0.0 0.00 0.00 0.00 8 1025.6
20220118062846 36 0 0.0 1.0 0.00 0.00 0.00 8 1025.5
20220118061902 36 180 1.0 3.0 0.00 0.00 0.00 8 1025.5
20220118061010 36 0 0.0 0.0 0.00 0.00 0.00 8 1025.3
20220118060141 36 0 0.0 0.0 0.00 0.00 0.00 8 1025.3
20220118055207 36 0 0.0 0.0 0.00 0.00 0.00 8 1025.4
20220118054311 37 0 0.0 0.0 0.00 0.00 0.00 8 1025.4
20220118053441 37 0 0.0 0.0 0.00 0.00 0.00 8 1025.1
20220118052556 37 0 0.0 0.0 0.00 0.00 0.00 8 1025.2
20220118051609 37 0 0.0 0.0 0.00 0.00 0.00 8 1025.3
20220118050636 37 0 0.0 0.0 0.00 0.00 0.00 8 1025.3
20220118045826 37 0 0.0 0.0 0.00 0.00 0.00 8 1025.4
20220118044852 37 0 0.0 0.0 0.00 0.00 0.00 8 1025.2
20220118044028 37 0 0.0 0.0 0.00 0.00 0.00 8 1025.2
20220118043053 37 0 0.0 0.0 0.00 0.00 0.00 8 1025.4
20220118042201 37 180 0.0 1.0 0.00 0.00 0.00 8 1025.3
20220118041346 37 0 0.0 0.0 0.00 0.00 0.00 8 1025.2
20220118040531 37 0 0.0 0.0 0.00 0.00 0.00 8 1025.3
20220118035556 37 0 0.0 0.0 0.00 0.00 0.00 8 1025.4
20220118034626 37 0 0.0 0.0 0.00 0.00 0.00 8 1025.3
20220118033747 38 0 0.0 0.0 0.00 0.00 0.00 8 1025.6
20220118032941 38 0 0.0 0.0 0.00 0.00 0.00 8 1025.7
20220118031956 38 0 0.0 0.0 0.00 0.00 0.00 8 1025.6
20220118031017 38 0 0.0 0.0 0.00 0.00 0.00 8 1025.6
20220118030047 38 0 0.0 1.0 0.00 0.00 0.00 8 1025.9
20220118025141 38 180 1.0 2.0 0.00 0.00 0.00 8 1026.1
20220118024257 38 0 0.0 0.0 0.00 0.00 0.00 8 1026.0
20220118023441 38 0 0.0 1.0 0.00 0.00 0.00 8 1026.2
20220118022606 38 0 0.0 0.0 0.00 0.00 0.00 8 1026.0
20220118021606 38 0 0.0 0.0 0.00 0.00 0.00 8 1026.2
20220118020615 39 0 0.0 0.0 0.00 0.00 0.00 8 1026.2
20220118015806 39 180 1.0 2.0 0.00 0.00 0.00 8 1026.2
20220118014836 39 180 0.0 1.0 0.00 0.00 0.00 8 1026.2
20220118013854 39 0 0.0 1.0 0.00 0.00 0.00 8 1026.1
20220118012941 39 0 0.0 0.0 0.00 0.00 0.00 8 1026.0
20220118012046 44 180 3.0 4.0 0.00 0.00 0.00 8 1026.1
20220118011215 44 180 2.0 3.0 0.00 0.00 0.00 8 1026.0
20220118010416 39 225 4.0 7.0 0.00 0.00 0.00 8 1026.2
20220118005428 39 270 1.0 3.0 0.00 0.00 0.00 8 1025.9
20220118004610 40 270 1.0 2.0 0.00 0.00 0.00 8 1026.1
20220118003646 41 270 1.0 3.0 0.00 0.00 0.00 8 1026.1
20220118002751 40 270 3.0 5.0 0.00 0.00 0.00 8 1026.2
20220118001946 39 0 0.0 0.0 0.00 0.00 0.00 8 1026.4
20220118001002 39 270 0.0 2.0 0.00 0.00 0.00 8 1026.3
20220118000021 40 0 0.0 0.0 0.00 0.00 0.00 8 1026.2
20220117235111 40 0 0.0 1.0 0.00 0.00 0.00 8 1026.5
20220117234216 39 270 0.0 2.0 0.00 0.00 0.00 8 1026.6
20220117233346 40 0 0.0 0.0 0.00 0.00 0.00 9 1026.7
20220117232357 41 270 1.0 3.0 0.00 0.00 0.00 8 1026.8
20220117231357 41 0 0.0 0.0 0.00 0.00 0.00 8 1026.7
20220117230431 41 270 3.0 4.0 0.00 0.00 0.00 8 1026.8
20220117225436 41 270 0.0 2.0 0.00 0.00 0.00 8 1027.0
20220117224526 41 0 0.0 0.0 0.00 0.00 0.00 8 1026.8
20220117223532 41 0 0.0 0.0 0.00 0.00 0.00 8 1026.8
20220117222536 41 0 0.0 0.0 0.00 0.00 0.00 8 1026.7
20220117221656 42 0 0.0 0.0 0.00 0.00 0.00 8 1026.9
20220117220708 42 0 0.0 1.0 0.00 0.00 0.00 8 1026.6
20220117215906 42 0 0.0 0.0 0.00 0.00 0.00 8 1026.9
20220117215031 43 0 0.0 1.0 0.00 0.00 0.00 8 1026.9
20220117214211 44 0 0.0 0.0 0.00 0.00 0.00 8 1027.0
20220117213356 45 270 3.0 6.0 0.00 0.00 0.00 8 1026.9
20220117212446 46 270 2.0 3.0 0.00 0.00 0.00 7 1026.8
20220117211611 46 270 2.0 4.0 0.00 0.00 0.00 7 1026.9
20220117210611 46 270 5.0 9.0 0.00 0.00 0.00 7 1027.1
20220117205753 46 270 3.0 4.0 0.00 0.00 0.00 7 1027.0
20220117204826 46 225 2.0 3.0 0.00 0.00 0.00 7 1027.2
20220117203922 47 270 5.0 12.0 0.00 0.00 0.00 7 1027.0
20220117203047 47 270 3.0 6.0 0.00 0.00 0.00 7 1027.0
20220117202111 46 270 2.0 4.0 0.00 0.00 0.00 8 1027.0
20220117201246 45 270 5.0 11.0 0.00 0.00 0.00 8 1026.9
20220117200442 44 0 0.0 0.0 0.00 0.00 0.00 9 1027.1
20220117195641 44 0 3.0 3.0 0.00 0.00 0.00 9 1027.1
20220117194736 44 0 1.0 3.0 0.00 0.00 0.00 9 1027.0
20220117193929 44 0 2.0 3.0 0.00 0.00 0.00 9 1027.0
20220117193005 44 0 0.0 1.0 0.00 0.00 0.00 8 1027.1
20220117192026 45 0 2.0 3.0 0.00 0.00 0.00 8 1027.1
20220117191226 45 0 0.0 0.0 0.00 0.00 0.00 8 1026.9
20220117190413 45 0 0.0 0.0 0.00 0.00 0.00 8 1026.9
20220117185447 46 0 0.0 3.0 0.00 0.00 0.00 8 1026.9
20220117184445 46 0 1.0 3.0 0.00 0.00 0.00 8 1026.9
20220117183549 46 0 3.0 5.0 0.00 0.00 0.00 8 1026.7
20220117182656 46 0 2.0 3.0 0.00 0.00 0.00 8 1026.6
20220117181746 46 45 2.0 3.0 0.00 0.00 0.00 8 1026.5
20220117180853 46 45 3.0 4.0 0.00 0.00 0.00 8 1026.4
20220117180031 46 45 1.0 3.0 0.00 0.00 0.00 8 1026.4
20220117175232 46 45 3.0 3.0 0.00 0.00 0.00 8 1026.7
20220117174255 47 45 3.0 4.0 0.00 0.00 0.00 8 1026.6
20220117173336 47 45 3.0 4.0 0.00 0.00 0.00 8 1026.6
20220117172509 48 45 2.0 3.0 0.00 0.00 0.00 8 1026.7
20220117171516 48 45 2.0 3.0 0.00 0.00 0.00 8 1026.6
20220117170626 48 45 2.0 3.0 0.00 0.00 0.00 7 1026.7
20220117165652 49 90 3.0 4.0 0.00 0.00 0.00 7 1026.8
20220117164721 50 90 2.0 3.0 0.00 0.00 0.00 7 1026.8
20220117163755 51 0 0.0 2.0 0.00 0.00 0.00 7 1026.6
20220117162814 52 0 0.0 0.0 0.00 0.00 0.00 7 1026.7
20220117161955 53 90 0.0 1.0 0.00 0.00 0.00 6 1026.5
20220117161035 53 90 1.0 3.0 0.00 0.00 0.00 6 1026.6
20220117160057 53 90 3.0 6.0 0.00 0.00 0.00 6 1026.6
20220117155226 54 90 3.0 5.0 0.00 0.00 0.00 6 1026.6
20220117154303 54 90 2.0 5.0 0.00 0.00 0.00 6 1026.7
20220117153351 55 45 4.0 6.0 0.00 0.00 0.00 6 1026.8
20220117152552 55 45 3.0 6.0 0.00 0.00 0.00 6 1026.7
20220117151656 55 90 3.0 6.0 0.00 0.00 0.00 6 1026.7
20220117150741 55 90 5.0 13.0 0.00 0.00 0.00 6 1027.0
20220117145841 56 90 2.0 4.0 0.00 0.00 0.00 6 1026.8
20220117144847 56 90 4.0 7.0 0.00 0.00 0.00 6 1026.6
20220117144016 56 90 2.0 4.0 0.00 0.00 0.00 6 1026.8
20220117143151 56 90 3.0 4.0 0.00 0.00 0.00 6 1026.5
20220117142153 56 90 3.0 5.0 0.00 0.00 0.00 5 1026.5
20220117141250 56 90 3.0 6.0 0.00 0.00 0.00 5 1026.5
20220117140316 57 90 3.0 6.0 0.00 0.00 0.00 5 1026.6
20220117135509 57 90 7.0 9.0 0.00 0.00 0.00 5 1026.6
20220117134540 57 90 3.0 10.0 0.00 0.00 0.00 5 1026.5
20220117133651 57 45 5.0 7.0 0.00 0.00 0.00 5 1026.5
20220117132650 58 90 6.0 9.0 0.00 0.00 0.00 5 1026.2
20220117131656 59 135 1.0 3.0 0.00 0.00 0.00 4 1026.3
20220117130750 59 90 0.0 2.0 0.00 0.00 0.00 3 1026.2
20220117125943 58 90 1.0 2.0 0.00 0.00 0.00 3 1026.2
20220117124945 58 90 2.0 3.0 0.00 0.00 0.00 4 1026.5
20220117124016 57 0 0.0 1.0 0.00 0.00 0.00 4 1027.3
20220117123109 57 135 1.0 2.0 0.00 0.00 0.00 4 1027.3
20220117122219 56 0 0.0 0.0 0.00 0.00 0.00 4 1027.6
20220117121405 56 0 0.0 2.0 0.00 0.00 0.00 4 1027.6
20220117120423 57 135 2.0 3.0 0.00 0.00 0.00 4 1028.0
20220117115430 56 0 0.0 2.0 0.00 0.00 0.00 5 1028.5
20220117114616 56 0 0.0 0.0 0.00 0.00 0.00 4 1028.3
20220117113711 56 135 0.0 2.0 0.00 0.00 0.00 5 1028.0
20220117112836 56 180 1.0 2.0 0.00 0.00 0.00 5 1028.2
20220117111851 54 0 0.0 1.0 0.00 0.00 0.00 5 1028.2
20220117110917 55 0 0.0 0.0 0.00 0.00 0.00 5 1028.3
20220117110041 56 0 0.0 0.0 0.00 0.00 0.00 5 1028.2
20220117105211 56 0 0.0 2.0 0.00 0.00 0.00 5 1028.4
20220117104326 54 0 0.0 0.0 0.00 0.00 0.00 5 1028.3
20220117103408 53 180 0.0 2.0 0.00 0.00 0.00 6 1029.2
20220117102606 52 0 0.0 0.0 0.00 0.00 0.00 5 1030.0
20220117101726 51 180 0.0 2.0 0.00 0.00 0.00 6 1029.1
20220117100841 51 180 0.0 2.0 0.00 0.00 0.00 6 1027.7
20220117100011 50 180 0.0 1.0 0.00 0.00 0.00 6 1027.7
20220117095126 50 0 0.0 1.0 0.00 0.00 0.00 6 1028.3
20220117094206 50 0 0.0 0.0 0.00 0.00 0.00 6 1028.4
20220117093332 48 0 0.0 0.0 0.00 0.00 0.00 6 1028.4
20220117092421 45 0 0.0 0.0 0.00 0.00 0.00 7 1028.3
20220117091515 45 0 0.0 0.0 0.00 0.00 0.00 7 1028.3
20220117090540 46 180 0.0 1.0 0.00 0.00 0.00 6 1028.3
20220117085622 46 0 0.0 0.0 0.00 0.00 0.00 6 1028.3
20220117084750 44 0 0.0 0.0 0.00 0.00 0.00 6 1028.3
20220117083946 43 0 0.0 0.0 0.00 0.00 0.00 6 1028.4
20220117083002 43 0 0.0 0.0 0.00 0.00 0.00 7 1028.4
20220117082131 42 0 0.0 0.0 0.00 0.00 0.00 7 1028.7
20220117081306 40 0 0.0 0.0 0.00 0.00 0.00 7 1028.6
20220117080443 39 0 0.0 0.0 0.00 0.00 0.00 7 1028.3
20220117075554 38 0 0.0 0.0 0.00 0.00 0.00 7 1028.3